Year,Month,Day,Hour,Minute,Value (Times are PST for temperature in C)
2009,09,23,00,00,11.80
2009,09,23,00,01,11.70
2009,09,23,00,02,11.70
2009,09,23,00,03,11.70
2009,09,23,00,04,11.70
2009,09,23,00,05,11.70
2009,09,23,00,06,11.60
2009,09,23,00,07,11.60
2009,09,23,00,08,11.60
2009,09,23,00,09,11.60
2009,09,23,00,10,11.60
2009,09,23,00,11,11.60
2009,09,23,00,12,11.60
2009,09,23,00,13,11.50
2009,09,23,00,14,11.50
2009,09,23,00,15,11.50
2009,09,23,00,16,11.50
2009,09,23,00,17,11.40
2009,09,23,00,18,11.40
2009,09,23,00,19,11.40
2009,09,23,00,20,11.40
2009,09,23,00,21,11.40
2009,09,23,00,22,11.40
2009,09,23,00,23,11.40
2009,09,23,00,24,11.40
2009,09,23,00,25,11.40
2009,09,23,00,26,11.40
2009,09,23,00,27,11.40
2009,09,23,00,28,11.40
2009,09,23,00,29,11.40
2009,09,23,00,30,11.40
2009,09,23,00,31,11.40
2009,09,23,00,32,11.40
2009,09,23,00,33,11.50
2009,09,23,00,34,11.50
2009,09,23,00,35,11.50
2009,09,23,00,36,11.50
2009,09,23,00,37,11.60
2009,09,23,00,38,11.60
2009,09,23,00,39,11.60
2009,09,23,00,40,11.70
2009,09,23,00,41,11.70
2009,09,23,00,42,11.70
2009,09,23,00,43,11.70
2009,09,23,00,44,11.70
2009,09,23,00,45,11.70
2009,09,23,00,46,11.70
2009,09,23,00,47,11.70
2009,09,23,00,48,11.70
2009,09,23,00,49,11.70
2009,09,23,00,50,11.70
2009,09,23,00,51,11.70
2009,09,23,00,52,11.70
2009,09,23,00,53,11.70
2009,09,23,00,54,11.80
2009,09,23,00,55,11.80
2009,09,23,00,56,11.80
2009,09,23,00,57,11.80
2009,09,23,00,58,11.70
2009,09,23,00,59,11.70
2009,09,23,01,00,11.70
2009,09,23,01,01,11.70
2009,09,23,01,02,11.60
2009,09,23,01,03,11.60
2009,09,23,01,04,11.60
2009,09,23,01,05,11.60
2009,09,23,01,06,11.60
2009,09,23,01,07,11.50
2009,09,23,01,08,11.50
2009,09,23,01,09,11.40
2009,09,23,01,10,11.40
2009,09,23,01,11,11.40
2009,09,23,01,12,11.40
2009,09,23,01,13,11.30
2009,09,23,01,14,11.30
2009,09,23,01,15,11.30
2009,09,23,01,16,11.30
2009,09,23,01,17,11.30
2009,09,23,01,18,11.30
2009,09,23,01,19,11.20
2009,09,23,01,20,11.20
2009,09,23,01,21,11.20
2009,09,23,01,22,11.20
2009,09,23,01,23,11.10
2009,09,23,01,24,11.10
2009,09,23,01,25,11.10
2009,09,23,01,26,11.10
2009,09,23,01,27,11.00
2009,09,23,01,28,11.00
2009,09,23,01,29,11.00
2009,09,23,01,30,10.90
2009,09,23,01,31,10.90
2009,09,23,01,32,10.90
2009,09,23,01,33,10.90
2009,09,23,01,34,10.90
2009,09,23,01,35,10.90
2009,09,23,01,36,10.80
2009,09,23,01,37,10.80
2009,09,23,01,38,10.80
2009,09,23,01,39,10.80
2009,09,23,01,40,10.80
2009,09,23,01,41,10.80
2009,09,23,01,42,10.80
2009,09,23,01,43,10.80
2009,09,23,01,44,10.80
2009,09,23,01,45,10.80
2009,09,23,01,46,10.80
2009,09,23,01,47,10.80
2009,09,23,01,48,10.80
2009,09,23,01,49,10.80
2009,09,23,01,50,10.80
2009,09,23,01,51,10.80
2009,09,23,01,52,10.80
2009,09,23,01,53,10.80
2009,09,23,01,54,10.80
2009,09,23,01,55,10.80
2009,09,23,01,56,10.80
2009,09,23,01,57,10.80
2009,09,23,01,58,10.70
2009,09,23,01,59,10.70
2009,09,23,02,00,10.70
2009,09,23,02,01,10.70
2009,09,23,02,02,10.70
2009,09,23,02,03,10.70
2009,09,23,02,04,10.70
2009,09,23,02,05,10.60
2009,09,23,02,06,10.60
2009,09,23,02,07,10.60
2009,09,23,02,08,10.60
2009,09,23,02,09,10.60
2009,09,23,02,10,10.60
2009,09,23,02,11,10.60
2009,09,23,02,12,10.60
2009,09,23,02,13,10.60
2009,09,23,02,14,10.60
2009,09,23,02,15,10.60
2009,09,23,02,16,10.60
2009,09,23,02,17,10.70
2009,09,23,02,18,10.70
2009,09,23,02,19,10.70
2009,09,23,02,20,10.80
2009,09,23,02,21,10.80
2009,09,23,02,22,10.80
2009,09,23,02,23,10.80
2009,09,23,02,24,10.80
2009,09,23,02,25,10.80
2009,09,23,02,26,10.80
2009,09,23,02,27,10.80
2009,09,23,02,28,10.80
2009,09,23,02,29,10.90
2009,09,23,02,30,10.90
2009,09,23,02,31,10.90
2009,09,23,02,32,10.90
2009,09,23,02,33,10.90
2009,09,23,02,34,10.90
2009,09,23,02,35,10.90
2009,09,23,02,36,10.90
2009,09,23,02,37,10.90
2009,09,23,02,38,10.90
2009,09,23,02,39,10.90
2009,09,23,02,40,10.90
2009,09,23,02,41,10.90
2009,09,23,02,42,11.00
2009,09,23,02,43,11.00
2009,09,23,02,44,11.10
2009,09,23,02,45,11.20
2009,09,23,02,46,11.20
2009,09,23,02,47,11.20
2009,09,23,02,48,11.20
2009,09,23,02,49,11.30
2009,09,23,02,50,11.30
2009,09,23,02,51,11.30
2009,09,23,02,52,11.40
2009,09,23,02,53,11.50
2009,09,23,02,54,11.50
2009,09,23,02,55,11.60
2009,09,23,02,56,11.60
2009,09,23,02,57,11.60
2009,09,23,02,58,11.60
2009,09,23,02,59,11.60
2009,09,23,03,00,11.60
2009,09,23,03,01,11.60
2009,09,23,03,02,11.60
2009,09,23,03,03,11.70
2009,09,23,03,04,11.70
2009,09,23,03,05,11.70
2009,09,23,03,06,11.80
2009,09,23,03,07,11.80
2009,09,23,03,08,11.80
2009,09,23,03,09,11.80
2009,09,23,03,10,11.90
2009,09,23,03,11,11.80
2009,09,23,03,12,11.90
2009,09,23,03,13,11.90
2009,09,23,03,14,11.90
2009,09,23,03,15,11.90
2009,09,23,03,16,11.90
2009,09,23,03,17,11.80
2009,09,23,03,18,11.80
2009,09,23,03,19,11.80
2009,09,23,03,20,11.80
2009,09,23,03,21,11.80
2009,09,23,03,22,11.80
2009,09,23,03,23,11.80
2009,09,23,03,24,11.80
2009,09,23,03,25,11.70
2009,09,23,03,26,11.70
2009,09,23,03,27,11.70
2009,09,23,03,28,11.60
2009,09,23,03,29,11.60
2009,09,23,03,30,11.60
2009,09,23,03,31,11.60
2009,09,23,03,32,11.50
2009,09,23,03,33,11.50
2009,09,23,03,34,11.60
2009,09,23,03,35,11.60
2009,09,23,03,36,11.60
2009,09,23,03,37,11.60
2009,09,23,03,38,11.60
2009,09,23,03,39,11.60
2009,09,23,03,40,11.60
2009,09,23,03,41,11.60
2009,09,23,03,42,11.60
2009,09,23,03,43,11.50
2009,09,23,03,44,11.50
2009,09,23,03,45,11.50
2009,09,23,03,46,11.40
2009,09,23,03,47,11.40
2009,09,23,03,48,11.40
2009,09,23,03,49,11.40
2009,09,23,03,50,11.40
2009,09,23,03,51,11.30
2009,09,23,03,52,11.30
2009,09,23,03,53,11.30
2009,09,23,03,54,11.30
2009,09,23,03,55,11.30
2009,09,23,03,56,11.20
2009,09,23,03,57,11.20
2009,09,23,03,58,11.20
2009,09,23,03,59,11.20
2009,09,23,04,00,11.10
2009,09,23,04,01,11.10
2009,09,23,04,02,11.10
2009,09,23,04,03,11.00
2009,09,23,04,04,11.00
2009,09,23,04,05,11.00
2009,09,23,04,06,10.90
2009,09,23,04,07,10.90
2009,09,23,04,08,10.90
2009,09,23,04,09,10.90
2009,09,23,04,10,10.90
2009,09,23,04,11,10.90
2009,09,23,04,12,10.90
2009,09,23,04,13,10.90
2009,09,23,04,14,10.90
2009,09,23,04,15,10.90
2009,09,23,04,16,10.80
2009,09,23,04,17,10.80
2009,09,23,04,18,10.80
2009,09,23,04,19,10.80
2009,09,23,04,20,10.80
2009,09,23,04,21,10.80
2009,09,23,04,22,10.80
2009,09,23,04,23,10.90
2009,09,23,04,24,10.90
2009,09,23,04,25,11.00
2009,09,23,04,26,11.00
2009,09,23,04,27,11.00
2009,09,23,04,28,11.00
2009,09,23,04,29,11.00
2009,09,23,04,30,11.00
2009,09,23,04,31,10.90
2009,09,23,04,32,10.90
2009,09,23,04,33,10.90
2009,09,23,04,34,10.80
2009,09,23,04,35,10.80
2009,09,23,04,36,10.80
2009,09,23,04,37,10.80
2009,09,23,04,38,10.80
2009,09,23,04,39,10.80
2009,09,23,04,40,10.80
2009,09,23,04,41,10.80
2009,09,23,04,42,10.80
2009,09,23,04,43,10.80
2009,09,23,04,44,10.90
2009,09,23,04,45,10.90
2009,09,23,04,46,11.00
2009,09,23,04,47,11.10
2009,09,23,04,48,11.20
2009,09,23,04,49,11.20
2009,09,23,04,50,11.20
2009,09,23,04,51,11.30
2009,09,23,04,52,11.30
2009,09,23,04,53,11.30
2009,09,23,04,54,11.40
2009,09,23,04,55,11.40
2009,09,23,04,56,11.40
2009,09,23,04,57,11.40
2009,09,23,04,58,11.40
2009,09,23,04,59,11.40
2009,09,23,05,00,11.40
2009,09,23,05,01,11.40
2009,09,23,05,02,11.30
2009,09,23,05,03,11.30
2009,09,23,05,04,11.30
2009,09,23,05,05,11.20
2009,09,23,05,06,11.20
2009,09,23,05,07,11.20
2009,09,23,05,08,11.20
2009,09,23,05,09,11.10
2009,09,23,05,10,11.10
2009,09,23,05,11,11.10
2009,09,23,05,12,11.00
2009,09,23,05,13,11.00
2009,09,23,05,14,11.00
2009,09,23,05,15,10.90
2009,09,23,05,16,10.90
2009,09,23,05,17,10.90
2009,09,23,05,18,10.90
2009,09,23,05,19,10.90
2009,09,23,05,20,10.90
2009,09,23,05,21,10.90
2009,09,23,05,22,10.90
2009,09,23,05,23,10.90
2009,09,23,05,24,10.90
2009,09,23,05,25,10.80
2009,09,23,05,26,10.80
2009,09,23,05,27,10.80
2009,09,23,05,28,10.80
2009,09,23,05,29,10.90
2009,09,23,05,30,10.90
2009,09,23,05,31,10.90
2009,09,23,05,32,11.00
2009,09,23,05,33,11.00
2009,09,23,05,34,11.10
2009,09,23,05,35,11.10
2009,09,23,05,36,11.10
2009,09,23,05,37,11.20
2009,09,23,05,38,11.20
2009,09,23,05,39,11.20
2009,09,23,05,40,11.20
2009,09,23,05,41,11.20
2009,09,23,05,42,11.30
2009,09,23,05,43,11.30
2009,09,23,05,44,11.20
2009,09,23,05,45,11.20
2009,09,23,05,46,11.20
2009,09,23,05,47,11.10
2009,09,23,05,48,11.10
2009,09,23,05,49,11.10
2009,09,23,05,50,11.00
2009,09,23,05,51,11.00
2009,09,23,05,52,10.90
2009,09,23,05,53,10.90
2009,09,23,05,54,10.80
2009,09,23,05,55,10.80
2009,09,23,05,56,10.80
2009,09,23,05,57,10.80
2009,09,23,05,58,10.70
2009,09,23,05,59,10.70
2009,09,23,06,00,10.60
2009,09,23,06,01,10.60
2009,09,23,06,02,10.60
2009,09,23,06,03,10.60
2009,09,23,06,04,10.60
2009,09,23,06,05,10.60
2009,09,23,06,06,10.70
2009,09,23,06,07,10.70
2009,09,23,06,08,10.70
2009,09,23,06,09,10.70
2009,09,23,06,10,10.80
2009,09,23,06,11,10.80
2009,09,23,06,12,10.80
2009,09,23,06,13,10.80
2009,09,23,06,14,10.80
2009,09,23,06,15,10.90
2009,09,23,06,16,10.90
2009,09,23,06,17,10.90
2009,09,23,06,18,11.00
2009,09,23,06,19,11.10
2009,09,23,06,20,11.10
2009,09,23,06,21,11.10
2009,09,23,06,22,11.10
2009,09,23,06,23,11.10
2009,09,23,06,24,11.10
2009,09,23,06,25,11.10
2009,09,23,06,26,11.10
2009,09,23,06,27,11.10
2009,09,23,06,28,11.10
2009,09,23,06,29,11.10
2009,09,23,06,30,11.10
2009,09,23,06,31,11.10
2009,09,23,06,32,11.10
2009,09,23,06,33,11.20
2009,09,23,06,34,11.20
2009,09,23,06,35,11.20
2009,09,23,06,36,11.20
2009,09,23,06,37,11.20
2009,09,23,06,38,11.20
2009,09,23,06,39,11.10
2009,09,23,06,40,11.10
2009,09,23,06,41,11.10
2009,09,23,06,42,11.10
2009,09,23,06,43,11.10
2009,09,23,06,44,11.10
2009,09,23,06,45,11.20
2009,09,23,06,46,11.20
2009,09,23,06,47,11.20
2009,09,23,06,48,11.30
2009,09,23,06,49,11.30
2009,09,23,06,50,11.40
2009,09,23,06,51,11.40
2009,09,23,06,52,11.40
2009,09,23,06,53,11.40
2009,09,23,06,54,11.40
2009,09,23,06,55,11.30
2009,09,23,06,56,11.30
2009,09,23,06,57,11.30
2009,09,23,06,58,11.20
2009,09,23,06,59,11.20
2009,09,23,07,00,11.20
2009,09,23,07,01,11.10
2009,09,23,07,02,11.10
2009,09,23,07,03,11.10
2009,09,23,07,04,11.00
2009,09,23,07,05,11.00
2009,09,23,07,06,10.90
2009,09,23,07,07,10.90
2009,09,23,07,08,10.90
2009,09,23,07,09,10.80
2009,09,23,07,10,10.80
2009,09,23,07,11,10.80
2009,09,23,07,12,10.80
2009,09,23,07,13,10.80
2009,09,23,07,14,10.80
2009,09,23,07,15,10.80
2009,09,23,07,16,10.80
2009,09,23,07,17,10.80
2009,09,23,07,18,10.80
2009,09,23,07,19,10.80
2009,09,23,07,20,10.80
2009,09,23,07,21,10.80
2009,09,23,07,22,10.90
2009,09,23,07,23,10.90
2009,09,23,07,24,11.00
2009,09,23,07,25,11.00
2009,09,23,07,26,11.10
2009,09,23,07,27,11.10
2009,09,23,07,28,11.10
2009,09,23,07,29,11.20
2009,09,23,07,30,11.20
2009,09,23,07,31,11.20
2009,09,23,07,32,11.20
2009,09,23,07,33,11.30
2009,09,23,07,34,11.30
2009,09,23,07,35,11.30
2009,09,23,07,36,11.30
2009,09,23,07,37,11.30
2009,09,23,07,38,11.30
2009,09,23,07,39,11.20
2009,09,23,07,40,11.20
2009,09,23,07,41,11.20
2009,09,23,07,42,11.20
2009,09,23,07,43,11.20
2009,09,23,07,44,11.20
2009,09,23,07,45,11.10
2009,09,23,07,46,11.10
2009,09,23,07,47,11.20
2009,09,23,07,48,11.20
2009,09,23,07,49,11.20
2009,09,23,07,50,11.20
2009,09,23,07,51,11.20
2009,09,23,07,52,11.30
2009,09,23,07,53,11.30
2009,09,23,07,54,11.30
2009,09,23,07,55,11.40
2009,09,23,07,56,11.40
2009,09,23,07,57,11.40
2009,09,23,07,58,11.40
2009,09,23,07,59,11.50
2009,09,23,08,00,11.50
2009,09,23,08,01,11.60
2009,09,23,08,02,11.60
2009,09,23,08,03,11.60
2009,09,23,08,04,11.60
2009,09,23,08,05,11.70
2009,09,23,08,06,11.80
2009,09,23,08,07,11.80
2009,09,23,08,08,11.90
2009,09,23,08,09,12.00
2009,09,23,08,10,12.10
2009,09,23,08,11,12.20
2009,09,23,08,12,12.30
2009,09,23,08,13,12.50
2009,09,23,08,14,12.70
2009,09,23,08,15,12.80
2009,09,23,08,16,13.00
2009,09,23,08,17,13.10
2009,09,23,08,18,13.20
2009,09,23,08,19,13.30
2009,09,23,08,20,13.40
2009,09,23,08,21,13.50
2009,09,23,08,22,13.60
2009,09,23,08,23,13.70
2009,09,23,08,24,13.80
2009,09,23,08,25,13.90
2009,09,23,08,26,13.90
2009,09,23,08,27,14.00
2009,09,23,08,28,14.10
2009,09,23,08,29,14.20
2009,09,23,08,30,14.20
2009,09,23,08,31,14.30
2009,09,23,08,32,14.30
2009,09,23,08,33,14.40
2009,09,23,08,34,14.40
2009,09,23,08,35,14.50
2009,09,23,08,36,14.50
2009,09,23,08,37,14.60
2009,09,23,08,38,14.70
2009,09,23,08,39,14.80
2009,09,23,08,40,14.90
2009,09,23,08,41,15.00
2009,09,23,08,42,15.00
2009,09,23,08,43,15.20
2009,09,23,08,44,15.30
2009,09,23,08,45,15.40
2009,09,23,08,46,15.50
2009,09,23,08,47,15.60
2009,09,23,08,48,15.70
2009,09,23,08,49,15.80
2009,09,23,08,50,15.90
2009,09,23,08,51,16.00
2009,09,23,08,52,16.00
2009,09,23,08,53,16.10
2009,09,23,08,54,16.10
2009,09,23,08,55,16.10
2009,09,23,08,56,16.20
2009,09,23,08,57,16.20
2009,09,23,08,58,16.20
2009,09,23,08,59,16.30
2009,09,23,09,00,16.30
2009,09,23,09,01,16.40
2009,09,23,09,02,16.40
2009,09,23,09,03,16.40
2009,09,23,09,04,16.40
2009,09,23,09,05,16.40
2009,09,23,09,06,16.50
2009,09,23,09,07,16.50
2009,09,23,09,08,16.60
2009,09,23,09,09,16.60
2009,09,23,09,10,16.70
2009,09,23,09,11,16.70
2009,09,23,09,12,16.80
2009,09,23,09,13,16.90
2009,09,23,09,14,17.00
2009,09,23,09,15,17.10
2009,09,23,09,16,17.20
2009,09,23,09,17,17.20
2009,09,23,09,18,17.30
2009,09,23,09,19,17.40
2009,09,23,09,20,17.50
2009,09,23,09,21,17.60
2009,09,23,09,22,17.70
2009,09,23,09,23,17.80
2009,09,23,09,24,18.00
2009,09,23,09,25,18.10
2009,09,23,09,26,18.20
2009,09,23,09,27,18.30
2009,09,23,09,28,18.40
2009,09,23,09,29,18.50
2009,09,23,09,30,18.50
2009,09,23,09,31,18.60
2009,09,23,09,32,18.70
2009,09,23,09,33,18.90
2009,09,23,09,34,18.90
2009,09,23,09,35,19.00
2009,09,23,09,36,19.10
2009,09,23,09,37,19.10
2009,09,23,09,38,19.30
2009,09,23,09,39,19.30
2009,09,23,09,40,19.40
2009,09,23,09,41,19.40
2009,09,23,09,42,19.50
2009,09,23,09,43,19.60
2009,09,23,09,44,19.60
2009,09,23,09,45,19.60
2009,09,23,09,46,19.60
2009,09,23,09,47,19.60
2009,09,23,09,48,19.70
2009,09,23,09,49,19.70
2009,09,23,09,50,19.80
2009,09,23,09,51,19.90
2009,09,23,09,52,20.00
2009,09,23,09,53,20.10
2009,09,23,09,54,20.10
2009,09,23,09,55,20.10
2009,09,23,09,56,20.20
2009,09,23,09,57,20.20
2009,09,23,09,58,20.20
2009,09,23,09,59,20.30
2009,09,23,10,00,20.30
2009,09,23,10,01,20.30
2009,09,23,10,02,20.40
2009,09,23,10,03,20.40
2009,09,23,10,04,20.40
2009,09,23,10,05,20.50
2009,09,23,10,06,20.50
2009,09,23,10,07,20.60
2009,09,23,10,08,20.60
2009,09,23,10,09,20.70
2009,09,23,10,10,20.80
2009,09,23,10,11,20.80
2009,09,23,10,12,20.80
2009,09,23,10,13,20.90
2009,09,23,10,14,20.90
2009,09,23,10,15,21.00
2009,09,23,10,16,21.00
2009,09,23,10,17,21.00
2009,09,23,10,18,21.00
2009,09,23,10,19,21.00
2009,09,23,10,20,21.10
2009,09,23,10,21,21.10
2009,09,23,10,22,21.10
2009,09,23,10,23,21.20
2009,09,23,10,24,21.20
2009,09,23,10,25,21.20
2009,09,23,10,26,21.30
2009,09,23,10,27,21.30
2009,09,23,10,28,21.40
2009,09,23,10,29,21.40
2009,09,23,10,30,21.40
2009,09,23,10,31,21.40
2009,09,23,10,32,21.50
2009,09,23,10,33,21.50
2009,09,23,10,34,21.60
2009,09,23,10,35,21.60
2009,09,23,10,36,21.70
2009,09,23,10,37,21.70
2009,09,23,10,38,21.80
2009,09,23,10,39,21.90
2009,09,23,10,40,22.00
2009,09,23,10,41,22.10
2009,09,23,10,42,22.20
2009,09,23,10,43,22.30
2009,09,23,10,44,22.40
2009,09,23,10,45,22.60
2009,09,23,10,46,22.80
2009,09,23,10,47,23.00
2009,09,23,10,48,23.20
2009,09,23,10,49,23.40
2009,09,23,10,50,23.60
2009,09,23,10,51,23.80
2009,09,23,10,52,23.90
2009,09,23,10,53,24.00
2009,09,23,10,54,24.10
2009,09,23,10,55,24.20
2009,09,23,10,56,24.20
2009,09,23,10,57,24.30
2009,09,23,10,58,24.40
2009,09,23,10,59,24.50
2009,09,23,11,00,24.50
2009,09,23,11,01,24.50
2009,09,23,11,02,24.50
2009,09,23,11,03,24.40
2009,09,23,11,04,24.40
2009,09,23,11,05,24.40
2009,09,23,11,06,24.30
2009,09,23,11,07,24.20
2009,09,23,11,08,24.20
2009,09,23,11,09,24.10
2009,09,23,11,10,24.00
2009,09,23,11,11,24.10
2009,09,23,11,12,24.10
2009,09,23,11,13,24.10
2009,09,23,11,14,24.00
2009,09,23,11,15,24.00
2009,09,23,11,16,23.90
2009,09,23,11,17,23.90
2009,09,23,11,18,23.90
2009,09,23,11,19,23.90
2009,09,23,11,20,24.00
2009,09,23,11,21,24.10
2009,09,23,11,22,24.20
2009,09,23,11,23,24.30
2009,09,23,11,24,24.30
2009,09,23,11,25,24.40
2009,09,23,11,26,24.50
2009,09,23,11,27,24.50
2009,09,23,11,28,24.60
2009,09,23,11,29,24.70
2009,09,23,11,30,24.70
2009,09,23,11,31,24.70
2009,09,23,11,32,24.80
2009,09,23,11,33,24.80
2009,09,23,11,34,24.80
2009,09,23,11,35,24.90
2009,09,23,11,36,24.90
2009,09,23,11,37,24.90
2009,09,23,11,38,24.90
2009,09,23,11,39,24.90
2009,09,23,11,40,24.90
2009,09,23,11,41,25.00
2009,09,23,11,42,25.10
2009,09,23,11,43,25.10
2009,09,23,11,44,25.20
2009,09,23,11,45,25.30
2009,09,23,11,46,25.40
2009,09,23,11,47,25.50
2009,09,23,11,48,25.70
2009,09,23,11,49,25.80
2009,09,23,11,50,25.80
2009,09,23,11,51,25.80
2009,09,23,11,52,25.90
2009,09,23,11,53,26.00
2009,09,23,11,54,26.10
2009,09,23,11,55,26.10
2009,09,23,11,56,26.20
2009,09,23,11,57,26.20
2009,09,23,11,58,26.20
2009,09,23,11,59,26.30
2009,09,23,12,00,26.30
2009,09,23,12,01,26.30
2009,09,23,12,02,26.40
2009,09,23,12,03,26.40
2009,09,23,12,04,26.50
2009,09,23,12,05,26.60
2009,09,23,12,06,26.70
2009,09,23,12,07,26.80
2009,09,23,12,08,26.80
2009,09,23,12,09,26.90
2009,09,23,12,10,26.80
2009,09,23,12,11,26.80
2009,09,23,12,12,26.80
2009,09,23,12,13,26.70
2009,09,23,12,14,26.70
2009,09,23,12,15,26.60
2009,09,23,12,16,26.60
2009,09,23,12,17,26.60
2009,09,23,12,18,26.50
2009,09,23,12,19,26.50
2009,09,23,12,20,26.50
2009,09,23,12,21,26.40
2009,09,23,12,22,26.40
2009,09,23,12,23,26.40
2009,09,23,12,24,26.40
2009,09,23,12,25,26.40
2009,09,23,12,26,26.30
2009,09,23,12,27,26.30
2009,09,23,12,28,26.20
2009,09,23,12,29,26.10
2009,09,23,12,30,26.00
2009,09,23,12,31,26.00
2009,09,23,12,32,26.10
2009,09,23,12,33,26.10
2009,09,23,12,34,26.10
2009,09,23,12,35,26.10
2009,09,23,12,36,26.00
2009,09,23,12,37,26.10
2009,09,23,12,38,26.10
2009,09,23,12,39,26.10
2009,09,23,12,40,26.20
2009,09,23,12,41,26.30
2009,09,23,12,42,26.40
2009,09,23,12,43,26.40
2009,09,23,12,44,26.50
2009,09,23,12,45,26.40
2009,09,23,12,46,26.40
2009,09,23,12,47,26.40
2009,09,23,12,48,26.30
2009,09,23,12,49,26.30
2009,09,23,12,50,26.30
2009,09,23,12,51,26.20
2009,09,23,12,52,26.20
2009,09,23,12,53,26.20
2009,09,23,12,54,26.30
2009,09,23,12,55,26.30
2009,09,23,12,56,26.20
2009,09,23,12,57,26.20
2009,09,23,12,58,26.20
2009,09,23,12,59,26.20
2009,09,23,13,00,26.20
2009,09,23,13,01,26.20
2009,09,23,13,02,26.20
2009,09,23,13,03,26.30
2009,09,23,13,04,26.40
2009,09,23,13,05,26.40
2009,09,23,13,06,26.50
2009,09,23,13,07,26.60
2009,09,23,13,08,26.70
2009,09,23,13,09,26.80
2009,09,23,13,10,26.80
2009,09,23,13,11,26.80
2009,09,23,13,12,26.80
2009,09,23,13,13,26.80
2009,09,23,13,14,26.80
2009,09,23,13,15,26.80
2009,09,23,13,16,26.70
2009,09,23,13,17,26.70
2009,09,23,13,18,26.70
2009,09,23,13,19,26.70
2009,09,23,13,20,26.70
2009,09,23,13,21,26.80
2009,09,23,13,22,26.80
2009,09,23,13,23,26.90
2009,09,23,13,24,26.90
2009,09,23,13,25,27.00
2009,09,23,13,26,26.90
2009,09,23,13,27,26.90
2009,09,23,13,28,26.90
2009,09,23,13,29,26.90
2009,09,23,13,30,26.90
2009,09,23,13,31,26.80
2009,09,23,13,32,26.80
2009,09,23,13,33,26.70
2009,09,23,13,34,26.70
2009,09,23,13,35,26.70
2009,09,23,13,36,26.70
2009,09,23,13,37,26.80
2009,09,23,13,38,26.80
2009,09,23,13,39,26.90
2009,09,23,13,40,26.90
2009,09,23,13,41,26.90
2009,09,23,13,42,26.90
2009,09,23,13,43,26.90
2009,09,23,13,44,27.00
2009,09,23,13,45,27.00
2009,09,23,13,46,27.10
2009,09,23,13,47,27.00
2009,09,23,13,48,27.00
2009,09,23,13,49,27.00
2009,09,23,13,50,27.00
2009,09,23,13,51,27.00
2009,09,23,13,52,27.10
2009,09,23,13,53,27.30
2009,09,23,13,54,27.30
2009,09,23,13,55,27.30
2009,09,23,13,56,27.40
2009,09,23,13,57,27.40
2009,09,23,13,58,27.50
2009,09,23,13,59,27.50
2009,09,23,14,00,27.50
2009,09,23,14,01,27.50
2009,09,23,14,02,27.60
2009,09,23,14,03,27.70
2009,09,23,14,04,27.80
2009,09,23,14,05,28.00
2009,09,23,14,06,28.10
2009,09,23,14,07,28.10
2009,09,23,14,08,28.20
2009,09,23,14,09,28.20
2009,09,23,14,10,28.20
2009,09,23,14,11,28.30
2009,09,23,14,12,28.30
2009,09,23,14,13,28.40
2009,09,23,14,14,28.40
2009,09,23,14,15,28.40
2009,09,23,14,16,28.30
2009,09,23,14,17,28.30
2009,09,23,14,18,28.30
2009,09,23,14,19,28.30
2009,09,23,14,20,28.20
2009,09,23,14,21,28.00
2009,09,23,14,22,27.80
2009,09,23,14,23,27.40
2009,09,23,14,24,27.10
2009,09,23,14,25,26.80
2009,09,23,14,26,26.60
2009,09,23,14,27,26.50
2009,09,23,14,28,26.40
2009,09,23,14,29,26.40
2009,09,23,14,30,26.40
2009,09,23,14,31,26.40
2009,09,23,14,32,26.30
2009,09,23,14,33,26.30
2009,09,23,14,34,26.30
2009,09,23,14,35,26.20
2009,09,23,14,36,26.10
2009,09,23,14,37,25.90
2009,09,23,14,38,25.70
2009,09,23,14,39,25.60
2009,09,23,14,40,25.50
2009,09,23,14,41,25.40
2009,09,23,14,42,25.40
2009,09,23,14,43,25.30
2009,09,23,14,44,25.30
2009,09,23,14,45,25.20
2009,09,23,14,46,25.10
2009,09,23,14,47,25.00
2009,09,23,14,48,24.90
2009,09,23,14,49,25.00
2009,09,23,14,50,25.00
2009,09,23,14,51,25.00
2009,09,23,14,52,25.00
2009,09,23,14,53,25.00
2009,09,23,14,54,25.00
2009,09,23,14,55,25.00
2009,09,23,14,56,24.90
2009,09,23,14,57,24.80
2009,09,23,14,58,24.70
2009,09,23,14,59,24.70
2009,09,23,15,00,24.60
2009,09,23,15,01,24.60
2009,09,23,15,02,24.60
2009,09,23,15,03,24.60
2009,09,23,15,04,24.60
2009,09,23,15,05,24.70
2009,09,23,15,06,24.70
2009,09,23,15,07,24.80
2009,09,23,15,08,24.80
2009,09,23,15,09,24.80
2009,09,23,15,10,24.80
2009,09,23,15,11,24.80
2009,09,23,15,12,24.90
2009,09,23,15,13,24.90
2009,09,23,15,14,24.90
2009,09,23,15,15,24.90
2009,09,23,15,16,24.90
2009,09,23,15,17,25.00
2009,09,23,15,18,25.10
2009,09,23,15,19,25.20
2009,09,23,15,20,25.30
2009,09,23,15,21,25.40
2009,09,23,15,22,25.50
2009,09,23,15,23,25.50
2009,09,23,15,24,25.50
2009,09,23,15,25,25.50
2009,09,23,15,26,25.60
2009,09,23,15,27,25.50
2009,09,23,15,28,25.50
2009,09,23,15,29,25.60
2009,09,23,15,30,25.60
2009,09,23,15,31,25.60
2009,09,23,15,32,25.70
2009,09,23,15,33,25.80
2009,09,23,15,34,25.90
2009,09,23,15,35,25.90
2009,09,23,15,36,26.00
2009,09,23,15,37,26.00
2009,09,23,15,38,26.00
2009,09,23,15,39,25.90
2009,09,23,15,40,25.90
2009,09,23,15,41,25.90
2009,09,23,15,42,25.80
2009,09,23,15,43,25.70
2009,09,23,15,44,25.60
2009,09,23,15,45,25.50
2009,09,23,15,46,25.30
2009,09,23,15,47,25.10
2009,09,23,15,48,25.00
2009,09,23,15,49,24.90
2009,09,23,15,50,24.80
2009,09,23,15,51,24.80
2009,09,23,15,52,24.80
2009,09,23,15,53,24.80
2009,09,23,15,54,24.80
2009,09,23,15,55,24.80
2009,09,23,15,56,24.90
2009,09,23,15,57,24.90
2009,09,23,15,58,24.90
2009,09,23,15,59,24.90
2009,09,23,16,00,24.90
2009,09,23,16,01,25.00
2009,09,23,16,02,25.00
2009,09,23,16,03,25.10
2009,09,23,16,04,25.10
2009,09,23,16,05,25.20
2009,09,23,16,06,25.30
2009,09,23,16,07,25.30
2009,09,23,16,08,25.20
2009,09,23,16,09,25.20
2009,09,23,16,10,25.20
2009,09,23,16,11,25.10
2009,09,23,16,12,25.10
2009,09,23,16,13,25.00
2009,09,23,16,14,25.00
2009,09,23,16,15,25.00
2009,09,23,16,16,25.00
2009,09,23,16,17,25.10
2009,09,23,16,18,25.20
2009,09,23,16,19,25.30
2009,09,23,16,20,25.30
2009,09,23,16,21,25.40
2009,09,23,16,22,25.50
2009,09,23,16,23,25.50
2009,09,23,16,24,25.60
2009,09,23,16,25,25.60
2009,09,23,16,26,25.60
2009,09,23,16,27,25.60
2009,09,23,16,28,25.60
2009,09,23,16,29,25.60
2009,09,23,16,30,25.60
2009,09,23,16,31,25.50
2009,09,23,16,32,25.40
2009,09,23,16,33,25.40
2009,09,23,16,34,25.40
2009,09,23,16,35,25.50
2009,09,23,16,36,25.60
2009,09,23,16,37,25.70
2009,09,23,16,38,25.80
2009,09,23,16,39,25.80
2009,09,23,16,40,25.80
2009,09,23,16,41,25.70
2009,09,23,16,42,25.70
2009,09,23,16,43,25.70
2009,09,23,16,44,25.70
2009,09,23,16,45,25.80
2009,09,23,16,46,25.80
2009,09,23,16,47,25.90
2009,09,23,16,48,25.90
2009,09,23,16,49,25.90
2009,09,23,16,50,26.00
2009,09,23,16,51,26.10
2009,09,23,16,52,26.10
2009,09,23,16,53,26.20
2009,09,23,16,54,26.30
2009,09,23,16,55,26.40
2009,09,23,16,56,26.40
2009,09,23,16,57,26.40
2009,09,23,16,58,26.30
2009,09,23,16,59,26.30
2009,09,23,17,00,26.20
2009,09,23,17,01,26.20
2009,09,23,17,02,26.20
2009,09,23,17,03,26.10
2009,09,23,17,04,26.10
2009,09,23,17,05,26.10
2009,09,23,17,06,26.10
2009,09,23,17,07,26.00
2009,09,23,17,08,26.10
2009,09,23,17,09,26.10
2009,09,23,17,10,26.20
2009,09,23,17,11,26.20
2009,09,23,17,12,26.20
2009,09,23,17,13,26.30
2009,09,23,17,14,26.30
2009,09,23,17,15,26.40
2009,09,23,17,16,26.40
2009,09,23,17,17,26.40
2009,09,23,17,18,26.40
2009,09,23,17,19,26.40